KK5DC Weather Reports


Display with metric or nautical units.
time (UTC)temp
F
wind
direction
speed
MPH
gust
MPH
rain 1hr
in
rain 24hr
in
rain mn
in
humidity
%
barometer
mb
20260906225004 85 192 1.0 6.0 0.00 0.16 0.16 69 1012.9
20260906224521 85 249 1.0 6.0 0.00 0.16 0.16 67 1012.9
20260906224502 85 184 3.0 10.0 0.00 0.16 0.16 67 1012.3
20260906224009 86 295 1.0 6.0 0.00 0.16 0.16 65 1013.1
20260906224002 86 108 5.0 10.0 0.00 0.16 0.16 65 1012.4
20260906223505 88 134 2.0 5.0 0.00 0.16 0.16 63 1013.4
20260906223503 88 51 4.0 15.0 0.00 0.16 0.16 63 1012.5
20260906223016 89 178 1.0 5.0 0.00 0.16 0.16 60 1013.3
20260906223006 89 169 5.0 15.0 0.00 0.16 0.16 60 1012.3
20260906222512 90 234 0.0 2.0 0.00 0.16 0.16 57 1013.1
20260906222503 90 103 2.0 3.0 0.00 0.16 0.16 57 1012.3
20260906222014 91 138 0.0 2.0 0.00 0.16 0.16 61 1012.9
20260906222004 91 80 1.0 3.0 0.00 0.16 0.16 61 1012.2
20260906221512 91 131 0.0 2.0 0.00 0.16 0.16 57 1012.9
20260906221505 91 74 1.0 3.0 0.00 0.16 0.16 57 1012.1
20260906221007 91 94 0.0 2.0 0.00 0.16 0.16 56 1012.9
20260906221002 91 88 1.0 2.0 0.00 0.16 0.16 56 1012.1
20260906220511 92 134 0.0 2.0 0.00 0.16 0.16 54 1012.8
20260906220506 91 316 1.0 2.0 0.00 0.16 0.16 54 1012.1
20260906220009 92 144 0.0 2.0 0.00 0.16 0.16 56 1012.8
20260906220003 92 180 0.0 4.0 0.00 0.16 0.16 56 1012.0
20260906215504 92 144 0.0 3.0 0.00 0.16 0.16 60 1012.8
20260906215007 93 222 0.0 4.0 0.00 0.16 0.16 54 1012.9
20260906215003 93 155 1.0 7.0 0.00 0.16 0.16 54 1012.0
20260906214515 93 225 1.0 4.0 0.00 0.16 0.16 57 1012.8
20260906214503 93 210 4.0 7.0 0.00 0.16 0.16 57 1012.0
20260906214007 93 264 0.0 2.0 0.00 0.16 0.16 56 1012.9
20260906214002 93 250 2.0 6.0 0.00 0.16 0.16 56 1012.1
20260906213509 91 212 0.0 2.0 0.00 0.16 0.16 60 1012.9
20260906213503 91 225 3.0 7.0 0.00 0.16 0.16 60 1012.2
20260906213018 91 360 0.0 2.0 0.00 0.16 0.16 61 1012.9
20260906213005 91 267 0.0 7.0 0.00 0.16 0.16 61 1012.2
20260906212503 91 259 3.0 7.0 0.00 0.16 0.16 60 1012.2
20260906212008 92 253 1.0 2.0 0.00 0.16 0.16 61 1013.1
20260906212002 92 245 2.0 6.0 0.00 0.16 0.16 61 1012.3
20260906211534 92 221 1.0 2.0 0.00 0.16 0.16 59 1013.1
20260906211504 92 244 3.0 6.0 0.00 0.16 0.16 59 1012.3
20260906211012 93 98 1.0 4.0 0.00 0.16 0.16 52 1013.2
20260906211004 93 224 1.0 10.0 0.00 0.16 0.16 52 1012.4
20260906210506 94 157 2.0 4.0 0.00 0.16 0.16 52 1013.3
20260906210504 94 165 6.0 9.0 0.00 0.16 0.16 52 1012.5
20260906210040 94 251 2.0 4.0 0.00 0.16 0.16 51 1013.3
20260906210005 94 207 2.0 8.0 0.00 0.16 0.16 51 1012.4
20260906205514 94 279 1.0 3.0 0.00 0.16 0.16 56 1013.4
20260906205503 94 232 4.0 7.0 0.00 0.16 0.16 56 1012.7
20260906205004 93 187 1.0 3.0 0.00 0.16 0.16 53 1013.6
20260906205002 93 105 0.0 6.0 0.00 0.16 0.16 53 1012.8
20260906204510 91 259 1.0 3.0 0.00 0.16 0.16 54 1013.6
20260906204504 91 205 3.0 5.0 0.00 0.16 0.16 54 1012.9
20260906204003 90 83 0.0 2.0 0.00 0.16 0.16 57 1013.0
20260906203506 90 239 1.0 2.0 0.00 0.16 0.16 57 1013.7
20260906203504 90 170 1.0 4.0 0.00 0.16 0.16 57 1013.0
20260906203014 89 158 0.0 2.0 0.00 0.16 0.16 69 1013.8
20260906203003 89 175 1.0 4.0 0.00 0.16 0.16 69 1013.0
20260906202507 89 84 0.0 2.0 0.00 0.16 0.16 68 1013.8
20260906202504 89 118 0.0 4.0 0.00 0.16 0.16 68 1013.0
20260906202012 90 63 0.0 2.0 0.00 0.16 0.16 68 1013.8
20260906202003 90 81 0.0 4.0 0.00 0.16 0.16 68 1013.0
20260906201507 90 5 0.0 2.0 0.00 0.16 0.16 70 1013.7
20260906201505 90 326 1.0 4.0 0.00 0.16 0.16 70 1013.1
20260906201009 89 233 1.0 2.0 0.00 0.16 0.16 63 1013.9
20260906201002 89 334 1.0 2.0 0.00 0.16 0.16 63 1013.2
20260906200516 87 96 0.0 2.0 0.00 0.16 0.16 76 1014.1
20260906200504 87 66 0.0 4.0 0.00 0.16 0.16 76 1013.3
20260906200038 87 96 0.0 2.0 0.00 0.16 0.16 77 1014.2
20260906200006 87 216 2.0 4.0 0.00 0.16 0.16 77 1013.4
20260906195504 87 94 0.0 2.0 0.00 0.16 0.16 75 1014.4
20260906195009 87 187 1.0 2.0 0.00 0.16 0.16 70 1014.4
20260906195003 87 84 1.0 2.0 0.00 0.16 0.16 70 1013.5
20260906194530 86 169 0.0 2.0 0.00 0.16 0.16 69 1014.3
20260906194503 86 96 0.0 2.0 0.00 0.16 0.16 69 1013.5
20260906194006 87 92 0.0 2.0 0.00 0.16 0.16 69 1014.3
20260906194002 87 101 0.0 2.0 0.00 0.16 0.16 69 1013.5
20260906193504 86 95 0.0 2.0 0.00 0.16 0.16 80 1014.3
20260906193014 87 76 0.0 2.0 0.00 0.16 0.16 70 1014.2
20260906193004 87 99 0.0 3.0 0.00 0.16 0.16 70 1013.7
20260906192511 86 108 1.0 2.0 0.00 0.16 0.16 73 1014.4
20260906192503 86 147 1.0 3.0 0.00 0.16 0.16 73 1013.7
20260906192006 85 171 0.0 2.0 0.00 0.16 0.16 83 1014.6
20260906192003 85 136 0.0 2.0 0.00 0.16 0.16 83 1013.7
20260906191523 84 117 0.0 0.0 0.00 0.16 0.16 85 1014.7
20260906191505 84 115 0.0 2.0 0.00 0.16 0.16 85 1013.8
20260906191009 84 117 0.0 0.0 0.00 0.16 0.16 79 1014.7
20260906191002 84 360 0.0 2.0 0.00 0.16 0.16 79 1013.8
20260906190513 85 141 0.0 2.0 0.00 0.16 0.16 84 1014.7
20260906190502 85 360 0.0 2.0 0.00 0.16 0.16 84 1013.9
20260906190020 85 134 0.0 2.0 0.00 0.16 0.16 81 1014.7
20260906190004 85 360 0.0 2.0 0.00 0.16 0.16 81 1014.0
20260906185510 84 144 0.0 2.0 0.00 0.16 0.16 86 1014.8
20260906185503 84 80 0.0 2.0 0.00 0.16 0.16 86 1014.1
20260906185016 84 352 0.0 2.0 0.00 0.16 0.16 87 1014.9
20260906185003 84 119 0.0 2.0 0.00 0.16 0.16 87 1014.2
20260906184514 84 352 0.0 2.0 0.00 0.16 0.16 80 1014.9
20260906184504 84 321 0.0 2.0 0.00 0.16 0.16 80 1014.3
20260906184009 83 34 0.0 2.0 0.00 0.16 0.16 88 1014.9
20260906184006 83 61 0.0 2.0 0.00 0.16 0.16 88 1014.4
20260906183518 82 34 0.0 2.0 0.00 0.16 0.16 89 1014.9
20260906183503 82 61 0.0 2.0 0.01 0.16 0.16 89 1014.3
20260906183023 82 34 0.0 2.0 0.04 0.16 0.16 91 1015.1
20260906183009 82 61 0.0 2.0 0.04 0.16 0.16 91 1014.3
20260906182510 81 34 0.0 2.0 0.12 0.16 0.16 88 1015.2
20260906182504 81 291 0.0 2.0 0.12 0.16 0.16 88 1014.4
20260906182006 81 34 0.0 2.0 0.16 0.16 0.16 91 1015.3
20260906182004 81 291 0.0 2.0 0.16 0.16 0.16 91 1014.5
20260906181523 80 15 0.0 2.0 0.16 0.16 0.16 89 1015.4
20260906181504 80 340 0.0 2.0 0.16 0.16 0.16 89 1014.6
20260906181008 80 15 0.0 2.0 0.16 0.16 0.16 91 1015.4
20260906181003 80 340 0.0 2.0 0.16 0.16 0.16 91 1014.6
20260906180510 80 20 0.0 2.0 0.16 0.16 0.16 93 1015.4
20260906180504 80 343 1.0 2.0 0.16 0.16 0.16 93 1014.7
20260906180037 78 340 1.0 2.0 0.16 0.16 0.16 92 1015.5
20260906180009 78 342 0.0 2.0 0.16 0.16 0.16 92 1014.8
20260906175515 77 18 0.0 2.0 0.16 0.16 0.16 93 1015.5
20260906175504 77 352 0.0 2.0 0.16 0.16 0.16 93 1014.9
20260906175007 76 21 0.0 2.0 0.16 0.16 0.16 93 1015.6
20260906175002 76 352 1.0 2.0 0.16 0.16 0.16 93 1015.0
20260906174535 75 33 0.0 2.0 0.16 0.16 0.16 92 1015.6
20260906174504 75 351 1.0 3.0 0.16 0.16 0.16 92 1015.1
20260906174014 74 40 1.0 2.0 0.16 0.16 0.16 89 1016.0
20260906174003 74 27 1.0 3.0 0.16 0.16 0.16 89 1015.3
20260906173505 74 59 0.0 4.0 0.16 0.16 0.16 86 1016.1
20260906173024 76 27 2.0 8.0 0.12 0.12 0.12 82 1016.0
20260906173006 76 17 2.0 8.0 0.12 0.12 0.12 82 1015.5
20260906172512 80 105 2.0 12.0 0.04 0.04 0.04 81 1015.9
20260906172504 80 89 4.0 12.0 0.04 0.04 0.04 81 1015.3
20260906172004 84 24 4.0 11.0 0.00 0.00 0.00 75 1015.2
20260906171516 87 146 0.0 2.0 0.00 0.00 0.00 67 1015.9
20260906171504 87 157 1.0 7.0 0.00 0.00 0.00 67 1015.2
20260906171008 88 159 0.0 3.0 0.00 0.00 0.00 65 1015.9
20260906171004 88 153 2.0 7.0 0.00 0.00 0.00 65 1015.2
20260906170504 89 207 0.0 3.0 0.00 0.00 0.00 64 1015.9
20260906170017 90 217 1.0 3.0 0.00 0.00 0.00 61 1015.9
20260906170015 90 225 3.0 7.0 0.00 0.00 0.00 61 1015.3
20260906165513 91 206 2.0 4.0 0.00 0.00 0.00 61 1015.9
20260906165506 91 221 3.0 7.0 0.00 0.00 0.00 61 1015.4
20260906165007 91 209 0.0 4.0 0.00 0.00 0.00 61 1016.0
20260906165004 91 142 1.0 6.0 0.00 0.00 0.00 61 1015.4
20260906164523 90 195 1.0 4.0 0.00 0.00 0.00 63 1016.2
20260906164508 90 245 3.0 6.0 0.00 0.00 0.00 63 1015.5
20260906164005 89 182 1.0 5.0 0.00 0.00 0.00 67 1015.4
20260906163504 89 206 2.0 6.0 0.00 0.00 0.00 66 1015.5
20260906163018 88 213 1.0 3.0 0.00 0.00 0.00 67 1016.1
20260906163006 88 196 2.0 6.0 0.00 0.00 0.00 67 1015.6
20260906162506 88 255 2.0 5.0 0.00 0.00 0.00 1015.6
20260906162005 87 267 1.0 3.0 0.00 0.00 0.00 1016.1
20260906162003 87 194 2.0 5.0 0.00 0.00 0.00 1015.6
20260906161506 87 217 0.0 5.0 0.00 0.00 0.00 1015.6
20260906161004 87 225 2.0 3.0 0.00 0.00 0.00 1016.2
20260906161002 87 242 3.0 5.0 0.00 0.00 0.00 1015.6
20260906160509 87 281 1.0 3.0 0.00 0.00 0.00 69 1016.3
20260906160503 87 207 3.0 5.0 0.00 0.00 0.00 69 1015.4
20260906160018 87 134 1.0 2.0 0.00 0.00 0.00 69 1016.3
20260906160012 87 228 1.0 4.0 0.00 0.00 0.00 69 1015.4
20260906155504 87 246 0.0 2.0 0.00 0.00 0.00 73 1016.2
20260906155005 86 311 1.0 2.0 0.00 0.00 0.00 72 1016.0
20260906155003 86 272 2.0 4.0 0.00 0.00 0.00 72 1015.4
20260906154528 86 180 0.0 2.0 0.00 0.00 0.00 75 1016.0
20260906154515 86 273 0.0 3.0 0.00 0.00 0.00 75 1015.5
20260906154006 86 265 1.0 4.0 0.00 0.00 0.00 73 1015.4
20260906154004 86 264 0.0 2.0 0.00 0.00 0.00 73 1015.9
20260906153507 86 252 1.0 2.0 0.00 0.00 0.00 74 1015.9
20260906153502 86 236 3.0 4.0 0.00 0.00 0.00 74 1015.4
20260906153007 86 220 2.0 4.0 0.00 0.00 0.00 75 1015.5
20260906152504 85 229 1.0 2.0 0.00 0.00 0.00 74 1016.0
20260906152007 85 189 2.0 6.0 0.00 0.00 0.00 75 1015.3
20260906151512 85 177 0.0 2.0 0.00 0.00 0.00 77 1016.0
20260906151510 85 109 1.0 6.0 0.00 0.00 0.00 77 1015.2
20260906151004 85 226 1.0 2.0 0.00 0.00 0.00 75 1016.0
20260906150504 84 216 0.0 2.0 0.00 0.00 0.00 78 1016.0
20260906150502 84 186 2.0 3.0 0.00 0.00 0.00 78 1015.1
20260906150023 84 114 0.0 2.0 0.00 0.00 0.00 77 1015.9
20260906150014 84 162 1.0 3.0 0.00 0.00 0.00 77 1015.2
20260906145511 84 205 0.0 2.0 0.00 0.00 0.00 78 1015.8
20260906145502 84 175 1.0 3.0 0.00 0.00 0.00 78 1015.3
20260906145008 84 197 0.0 2.0 0.00 0.00 0.00 77 1015.8
20260906144508 84 156 1.0 4.0 0.00 0.00 0.00 78 1015.2
20260906144008 83 100 0.0 3.0 0.00 0.00 0.00 77 1015.7
20260906143509 84 180 0.0 5.0 0.00 0.00 0.00 78 1015.2
20260906143017 84 199 0.0 3.0 0.00 0.00 0.00 79 1015.8
20260906143011 84 198 3.0 5.0 0.00 0.00 0.00 79 1015.2
20260906142504 83 228 1.0 2.0 0.00 0.00 0.00 80 1015.8
20260906142009 83 107 0.0 6.0 0.00 0.00 0.00 79 1015.1
20260906142004 83 183 1.0 2.0 0.00 0.00 0.00 79 1015.8
20260906141516 83 151 2.0 6.0 0.00 0.00 0.00 79 1015.1
20260906141508 83 273 1.0 3.0 0.00 0.00 0.00 79 1015.8
20260906141004 83 254 1.0 3.0 0.00 0.00 0.00 80 1015.8
20260906140504 83 236 1.0 2.0 0.00 0.00 0.00 83 1015.8
20260906140502 83 153 1.0 5.0 0.00 0.00 0.00 83 1015.0
20260906140020 82 180 1.0 3.0 0.00 0.00 0.00 83 1014.9
20260906140013 82 243 1.0 3.0 0.00 0.00 0.00 83 1015.8
20260906135509 82 231 0.0 3.0 0.00 0.00 0.00 83 1015.7
20260906135503 82 136 1.0 5.0 0.00 0.00 0.00 83 1014.9
20260906135006 82 230 0.0 2.0 0.00 0.00 0.00 85 1015.8
20260906135003 82 155 2.0 5.0 0.00 0.00 0.00 85 1014.9
20260906134534 81 196 2.0 4.0 0.00 0.00 0.00 85 1014.9
20260906134518 81 251 0.0 2.0 0.00 0.00 0.00 85 1015.6
20260906134011 80 103 1.0 2.0 0.00 0.00 0.00 86 1015.6
20260906134006 80 157 0.0 2.0 0.00 0.00 0.00 86 1015.0
20260906133506 80 90 0.0 2.0 0.00 0.00 0.00 87 1014.9
20260906133018 80 69 0.0 2.0 0.00 0.00 0.00 88 1015.6
20260906133013 80 159 0.0 2.0 0.00 0.00 0.00 88 1015.0
20260906132514 79 182 0.0 2.0 0.00 0.00 0.00 89 1015.6
20260906132506 79 159 0.0 2.0 0.00 0.00 0.00 89 1014.9
20260906132015 78 151 0.0 2.0 0.00 0.00 0.00 89 1015.4
20260906132003 78 121 0.0 2.0 0.00 0.00 0.00 89 1014.8
20260906131523 78 159 0.0 2.0 0.00 0.00 0.00 90 1015.3
20260906131514 78 134 0.0 3.0 0.00 0.00 0.00 90 1014.6
20260906131012 77 156 1.0 3.0 0.00 0.00 0.00 90 1014.5
20260906131004 77 71 0.0 2.0 0.00 0.00 0.00 90 1015.2
20260906130504 77 142 0.0 2.0 0.00 0.00 0.00 90 1015.1
20260906130014 77 142 0.0 2.0 0.00 0.00 0.00 90 1014.4
20260906125508 77 106 0.0 2.0 0.00 0.00 0.00 90 1015.0
20260906125007 77 124 0.0 2.0 0.00 0.00 0.00 90 1014.4
20260906124517 76 125 0.0 2.0 0.00 0.00 0.00 91 1014.4
20260906124006 76 109 0.0 2.0 0.00 0.00 0.00 90 1014.9
20260906123511 76 109 0.0 2.0 0.00 0.00 0.00 91 1014.7
20260906123505 76 125 0.0 2.0 0.00 0.00 0.00 91 1014.1
20260906123028 76 205 0.0 0.0 0.00 0.00 0.00 91 1014.6
20260906122507 76 126 0.0 2.0 0.00 0.00 0.00 91 1013.9
20260906122504 76 206 0.0 2.0 0.00 0.00 0.00 91 1014.4
20260906122009 76 206 0.0 2.0 0.00 0.00 0.00 91 1014.3
20260906121528 76 206 0.0 0.0 0.00 0.00 0.00 91 1014.3
20260906121519 76 126 0.0 2.0 0.00 0.00 0.00 91 1013.7
20260906121013 76 206 0.0 0.0 0.00 0.00 0.00 91 1014.3
20260906121008 76 126 0.0 0.0 0.00 0.00 0.00 91 1013.6
20260906120509 76 126 0.0 2.0 0.00 0.00 0.00 91 1013.6
20260906120017 76 126 0.0 2.0 0.00 0.00 0.00 91 1013.5
20260906120010 76 206 0.0 0.0 0.00 0.00 0.00 91 1014.3
20260906115512 76 126 0.0 2.0 0.00 0.00 0.00 91 1013.5
20260906115506 76 206 0.0 0.0 0.00 0.00 0.00 91 1014.2
20260906115006 76 176 0.0 2.0 0.00 0.00 0.00 91 1013.4
20260906114532 76 206 0.0 0.0 0.00 0.00 0.00 91 1014.0
20260906114523 76 176 0.0 2.0 0.00 0.00 0.00 91 1013.3
20260906114013 76 206 0.0 0.0 0.00 0.00 0.00 91 1013.9
20260906114008 76 176 0.0 2.0 0.00 0.00 0.00 91 1013.2
20260906113507 75 206 0.0 0.0 0.00 0.00 0.00 91 1013.8
20260906113019 75 206 0.0 0.0 0.00 0.00 0.00 90 1013.7
20260906113003 75 176 0.0 2.0 0.00 0.00 0.00 90 1013.0
20260906112510 76 206 0.0 0.0 0.00 0.00 0.00 90 1013.4
20260906112503 76 176 0.0 0.0 0.00 0.00 0.00 90 1012.8
20260906112012 76 206 0.0 0.0 0.00 0.00 0.00 90 1013.5
20260906112003 76 176 0.0 0.0 0.00 0.00 0.00 90 1012.9
20260906111514 76 206 0.0 0.0 0.00 0.00 0.00 90 1013.5
20260906111504 76 176 0.0 0.0 0.00 0.00 0.00 90 1012.9
20260906111010 76 206 0.0 0.0 0.00 0.00 0.00 90 1013.4
20260906111004 76 176 0.0 0.0 0.00 0.00 0.00 90 1012.8
20260906110510 76 206 0.0 0.0 0.00 0.00 0.00 89 1013.4
20260906110503 76 176 0.0 0.0 0.00 0.00 0.00 89 1012.8
20260906110039 77 206 0.0 0.0 0.00 0.00 0.00 89 1013.3
20260906110007 77 176 0.0 0.0 0.00 0.00 0.00 89 1012.8
20260906105508 77 206 0.0 0.0 0.00 0.00 0.00 89 1013.4
20260906105503 77 176 0.0 0.0 0.00 0.00 0.00 89 1012.8
20260906105009 77 206 0.0 0.0 0.00 0.00 0.00 89 1013.3
20260906105002 77 176 0.0 2.0 0.00 0.00 0.00 89 1012.7
20260906104518 77 206 0.0 0.0 0.00 0.00 0.00 88 1013.4
20260906104507 77 176 0.0 2.0 0.00 0.00 0.00 88 1012.7
20260906104004 77 206 0.0 0.0 0.00 0.00 0.00 88 1013.4
20260906103508 77 206 0.0 0.0 0.00 0.00 0.00 88 1013.5
20260906103504 77 176 0.0 2.0 0.00 0.00 0.00 88 1012.9
20260906103026 77 206 0.0 0.0 0.00 0.00 0.00 88 1013.5
20260906103004 77 176 0.0 2.0 0.00 0.00 0.00 88 1012.9
20260906102510 77 206 0.0 0.0 0.00 0.00 0.00 88 1013.4
20260906102503 77 176 0.0 0.0 0.00 0.00 0.00 88 1012.8
20260906102011 77 206 0.0 0.0 0.00 0.00 0.00 87 1013.4
20260906102003 77 176 0.0 0.0 0.00 0.00 0.00 87 1012.8
20260906101526 78 206 0.0 0.0 0.00 0.00 0.00 87 1013.5
20260906101504 78 176 0.0 1.0 0.00 0.00 0.00 87 1012.9
20260906101014 78 206 0.0 0.0 0.00 0.00 0.00 87 1013.4
20260906101003 78 176 0.0 2.0 0.00 0.00 0.00 87 1012.8
20260906100507 78 206 0.0 0.0 0.00 0.00 0.00 86 1013.4
20260906100503 78 176 0.0 2.0 0.00 0.00 0.00 86 1012.8
20260906100025 78 206 0.0 2.0 0.00 0.00 0.00 86 1013.4
20260906100008 78 176 0.0 2.0 0.00 0.00 0.00 86 1012.8
20260906095511 78 206 0.0 2.0 0.00 0.00 0.00 86 1013.4
20260906095503 78 176 0.0 2.0 0.00 0.00 0.00 86 1012.7
20260906095016 78 206 0.0 2.0 0.00 0.00 0.00 86 1013.4
20260906095004 78 196 1.0 2.0 0.00 0.00 0.00 86 1012.7
20260906094528 79 206 0.0 2.0 0.00 0.00 0.00 85 1013.4
20260906094508 79 202 1.0 2.0 0.00 0.00 0.00 85 1012.7
20260906094007 79 206 0.0 2.0 0.00 0.00 0.00 85 1013.3
20260906094004 79 202 1.0 3.0 0.00 0.00 0.00 85 1012.7
20260906093510 79 206 0.0 2.0 0.00 0.00 0.00 85 1013.2
20260906093504 79 202 1.0 3.0 0.00 0.00 0.00 85 1012.6
20260906093015 79 228 0.0 2.0 0.00 0.00 0.00 85 1013.1
20260906093008 79 198 1.0 3.0 0.00 0.00 0.00 85 1012.5
20260906092508 79 228 0.0 2.0 0.00 0.00 0.00 85 1013.1
20260906092014 79 228 0.0 2.0 0.00 0.00 0.00 85 1013.0
20260906092004 79 224 2.0 4.0 0.00 0.00 0.00 85 1012.4
20260906091527 79 229 0.0 2.0 0.00 0.00 0.00 84 1013.0
20260906091508 79 221 1.0 4.0 0.00 0.00 0.00 84 1012.4
20260906091010 79 229 0.0 2.0 0.00 0.00 0.00 84 1013.1
20260906091003 79 173 1.0 3.0 0.00 0.00 0.00 84 1012.5
20260906090516 79 229 0.0 2.0 0.00 0.00 0.00 84 1013.2
20260906090503 79 190 2.0 4.0 0.00 0.00 0.00 84 1012.6
20260906090031 79 229 0.0 2.0 0.00 0.00 0.00 84 1013.1
20260906090006 79 202 2.0 4.0 0.00 0.00 0.00 84 1012.5
20260906085504 79 229 0.0 2.0 0.00 0.00 0.00 84 1013.1
20260906085012 79 229 0.0 2.0 0.00 0.00 0.00 84 1013.2
20260906085004 79 200 1.0 3.0 0.00 0.00 0.00 84 1012.6
20260906084535 79 229 0.0 2.0 0.00 0.00 0.00 84 1013.2
20260906084504 79 191 1.0 3.0 0.00 0.00 0.00 84 1012.6
20260906084017 79 236 0.0 2.0 0.00 0.00 0.00 83 1013.1
20260906084003 79 192 2.0 3.0 0.00 0.00 0.00 83 1012.5
20260906083507 79 236 0.0 2.0 0.00 0.00 0.00 83 1013.2
20260906083503 79 175 2.0 5.0 0.00 0.00 0.00 83 1012.5
20260906083017 79 236 0.0 2.0 0.00 0.00 0.00 83 1013.3
20260906083011 79 182 2.0 5.0 0.00 0.00 0.00 83 1012.7
20260906082506 79 226 1.0 2.0 0.00 0.00 0.00 83 1013.3
20260906082009 79 234 0.0 2.0 0.00 0.00 0.00 83 1013.2
20260906082007 79 205 3.0 5.0 0.00 0.00 0.00 83 1012.7
20260906081541 79 227 0.0 2.0 0.00 0.00 0.00 83 1013.2
20260906081510 79 209 2.0 5.0 0.00 0.00 0.00 83 1012.7
20260906081013 79 225 0.0 2.0 0.00 0.00 0.00 82 1013.3
20260906081003 79 184 1.0 4.0 0.00 0.00 0.00 82 1012.7
20260906080515 79 219 0.0 2.0 0.00 0.00 0.00 83 1013.3
20260906080506 79 208 2.0 4.0 0.00 0.00 0.00 83 1012.7
20260906080018 79 251 0.0 2.0 0.00 0.00 0.00 83 1013.4
20260906080015 79 211 2.0 4.0 0.00 0.00 0.00 83 1012.7
20260906075513 79 268 0.0 2.0 0.00 0.00 0.00 82 1013.5
20260906075503 79 194 2.0 3.0 0.00 0.00 0.00 82 1012.9
20260906075020 79 229 0.0 2.0 0.00 0.00 0.00 82 1013.5
20260906075003 79 196 1.0 3.0 0.00 0.00 0.00 82 1012.9
20260906074532 79 227 0.0 2.0 0.00 0.00 0.00 82 1013.6
20260906074505 79 198 1.0 3.0 0.00 0.00 0.00 82 1013.0
20260906074008 79 227 0.0 2.0 0.00 0.00 0.00 82 1013.6
20260906074003 79 198 1.0 3.0 0.00 0.00 0.00 82 1013.0
20260906073515 79 227 0.0 2.0 0.00 0.00 0.00 82 1013.7
20260906073503 79 171 0.0 3.0 0.00 0.00 0.00 82 1013.1
20260906073033 79 227 0.0 2.0 0.00 0.00 0.00 82 1013.9
20260906073017 79 169 1.0 3.0 0.00 0.00 0.00 82 1013.3
20260906072507 79 226 0.0 2.0 0.00 0.00 0.00 81 1014.0
20260906072504 79 201 1.0 3.0 0.00 0.00 0.00 81 1013.3
20260906072006 80 192 2.0 2.0 0.00 0.00 0.00 81 1013.2
20260906071523 80 220 0.0 2.0 0.00 0.00 0.00 81 1014.0
20260906071506 80 200 0.0 3.0 0.00 0.00 0.00 81 1013.3
20260906071010 80 188 0.0 2.0 0.00 0.00 0.00 81 1014.0
20260906071008 80 207 0.0 4.0 0.00 0.00 0.00 81 1013.5
20260906070513 80 188 0.0 2.0 0.00 0.00 0.00 81 1013.9
20260906070505 80 174 1.0 4.0 0.00 0.00 0.00 81 1013.4
20260906070028 80 170 0.0 2.0 0.00 0.00 0.00 81 1014.0
20260906070011 80 165 1.0 4.0 0.00 0.00 0.00 81 1013.4
20260906065510 80 170 0.0 2.0 0.00 0.00 0.00 81 1014.1
20260906065503 80 157 1.0 4.0 0.00 0.00 0.00 81 1013.5
20260906065007 79 134 1.0 4.0 0.00 0.00 0.00 81 1013.5
20260906064528 79 170 0.0 2.0 0.00 0.00 0.00 81 1014.2
20260906064504 79 148 0.0 2.0 0.00 0.00 0.00 81 1013.6
20260906064018 79 173 0.0 2.0 0.00 0.00 0.00 81 1014.3
20260906064004 79 173 0.0 2.0 0.00 0.00 0.00 81 1013.6
20260906063515 79 173 0.0 2.0 0.00 0.00 0.00 80 1014.4
20260906063502 80 193 0.0 2.0 0.00 0.00 0.00 80 1013.7
20260906063032 79 183 0.0 2.0 0.00 0.00 0.00 80 1014.4
20260906063008 79 161 1.0 2.0 0.00 0.00 0.00 80 1013.7
20260906062518 79 183 0.0 2.0 0.00 0.00 0.00 80 1014.4
20260906062506 79 153 1.0 2.0 0.00 0.00 0.00 80 1013.6
20260906062019 79 178 0.0 2.0 0.00 0.00 0.00 80 1014.4
20260906062006 79 146 0.0 2.0 0.00 0.00 0.00 80 1013.7
20260906061519 80 178 0.0 2.0 0.00 0.00 0.00 80 1014.5
20260906061007 80 153 0.0 2.0 0.00 0.00 0.00 80 1013.8
20260906060509 80 213 0.0 1.0 0.00 0.00 0.00 80 1014.4
20260906060502 80 162 0.0 2.0 0.00 0.00 0.00 80 1013.7
20260906060022 80 213 0.0 2.0 0.00 0.00 0.00 79 1014.3
20260906060019 80 155 0.0 2.0 0.00 0.00 0.00 79 1013.7
20260906055511 80 213 0.0 2.0 0.00 0.00 0.00 79 1014.4
20260906055508 80 169 0.0 3.0 0.00 0.00 0.00 79 1013.7
20260906055010 80 184 0.0 2.0 0.00 0.00 0.00 78 1014.5
20260906055008 80 180 0.0 5.0 0.00 0.00 0.00 78 1013.8
20260906054529 80 184 0.0 2.0 0.00 0.00 0.00 78 1014.4
20260906054513 80 142 1.0 5.0 0.00 0.00 0.00 78 1013.8
20260906054010 80 180 0.0 2.0 0.00 0.00 0.00 78 1014.4
20260906054007 80 171 2.0 5.0 0.00 0.00 0.00 78 1013.8
20260906053514 80 182 0.0 2.0 0.00 0.00 0.00 78 1014.5
20260906053503 80 175 1.0 4.0 0.00 0.00 0.00 78 1013.7
20260906053029 80 190 0.0 2.0 0.00 0.00 0.00 78 1014.3
20260906053008 80 172 1.0 3.0 0.00 0.00 0.00 78 1013.6
20260906052515 80 221 0.0 2.0 0.00 0.00 0.00 78 1014.3
20260906052504 80 148 1.0 3.0 0.00 0.00 0.00 78 1013.6
20260906052011 80 237 0.0 2.0 0.00 0.00 0.00 78 1014.3
20260906052006 80 148 1.0 3.0 0.00 0.00 0.00 78 1013.6
20260906051530 80 182 0.0 2.0 0.00 0.00 0.00 78 1014.3
20260906051513 80 167 1.0 3.0 0.00 0.00 0.00 78 1013.7
20260906051016 80 155 0.0 2.0 0.00 0.00 0.00 78 1014.4
20260906051009 80 153 1.0 3.0 0.00 0.00 0.00 78 1013.7
20260906050507 80 149 0.0 3.0 0.00 0.00 0.00 78 1013.7
20260906050505 80 161 0.0 3.0 0.00 0.00 0.00 78 1014.4
20260906050025 80 100 0.0 3.0 0.00 0.00 0.00 78 1014.4
20260906050020 80 152 0.0 3.0 0.00 0.00 0.00 78 1013.7
20260906045513 80 119 0.0 2.0 0.00 0.00 0.00 78 1014.4
20260906045505 80 152 0.0 3.0 0.00 0.00 0.00 78 1013.6
20260906045012 80 138 0.0 2.0 0.00 0.00 0.00 78 1014.4
20260906045009 80 150 0.0 2.0 0.00 0.00 0.00 78 1013.7
20260906044530 80 155 0.0 2.0 0.00 0.00 0.00 77 1014.4
20260906044521 80 88 0.0 2.0 0.00 0.00 0.00 77 1013.7
20260906044018 80 88 0.0 2.0 0.00 0.00 0.00 77 1013.7
20260906044016 80 109 0.0 2.0 0.00 0.00 0.00 77 1014.3
20260906043517 80 126 0.0 2.0 0.00 0.00 0.00 77 1014.4
20260906043505 80 88 0.0 2.0 0.00 0.00 0.00 77 1013.6
20260906043023 80 146 0.0 2.0 0.00 0.00 0.00 77 1014.2
20260906043020 80 89 0.0 2.0 0.00 0.00 0.00 77 1013.6
20260906042512 80 132 0.0 2.0 0.00 0.00 0.00 77 1014.3
20260906042507 80 89 0.0 2.0 0.00 0.00 0.00 77 1013.6
20260906042016 80 138 0.0 2.0 0.00 0.00 0.00 76 1014.2
20260906042004 80 89 0.0 2.0 0.00 0.00 0.00 76 1013.6
20260906041530 81 118 0.0 2.0 0.00 0.00 0.00 76 1014.3
20260906041516 81 90 0.0 2.0 0.00 0.00 0.00 76 1013.6
20260906041014 81 123 0.0 2.0 0.00 0.00 0.00 76 1014.3
20260906041009 81 90 0.0 2.0 0.00 0.00 0.00 76 1013.7
20260906040508 81 109 0.0 2.0 0.00 0.00 0.00 76 1014.3
20260906040505 81 98 0.0 2.0 0.00 0.00 0.00 76 1013.6
20260906040016 81 98 0.0 2.0 0.00 0.00 0.00 76 1013.6
20260906040012 81 148 0.0 2.0 0.00 0.00 0.00 76 1014.3
20260906035510 81 98 0.0 2.0 0.00 0.00 0.00 76 1013.6
20260906035508 81 166 0.0 2.0 0.00 0.00 0.00 76 1014.3
20260906035009 81 81 0.0 2.0 0.00 0.00 0.00 75 1014.2
20260906034526 81 115 0.0 2.0 0.00 0.00 0.00 75 1014.2
20260906034512 81 107 0.0 3.0 0.00 0.00 0.00 75 1013.5
20260906034009 81 84 1.0 3.0 0.00 0.00 0.00 75 1013.5
20260906034007 81 97 0.0 2.0 0.00 0.00 0.00 75 1014.3
20260906033513 82 103 0.0 2.0 0.00 0.00 0.00 74 1014.1
20260906033510 82 66 0.0 2.0 0.00 0.00 0.00 74 1013.5
20260906033027 82 90 0.0 2.0 0.00 0.00 0.00 74 1014.1
20260906033024 82 105 0.0 2.0 0.00 0.00 0.00 74 1013.4
20260906032507 82 140 0.0 3.0 0.00 0.00 0.00 73 1014.0
20260906032505 82 92 0.0 4.0 0.00 0.00 0.00 73 1013.3
20260906032009 82 83 0.0 5.0 0.00 0.00 0.00 73 1013.3
20260906031542 83 188 0.0 6.0 0.00 0.00 0.00 73 1014.0
20260906031525 83 79 1.0 6.0 0.00 0.00 0.00 73 1013.3
20260906031006 83 205 1.0 5.0 0.00 0.00 0.00 73 1014.0
20260906031003 83 128 1.0 5.0 0.00 0.00 0.00 73 1013.3
20260906030507 83 158 1.0 5.0 0.00 0.00 0.00 72 1013.2
20260906030504 83 217 1.0 5.0 0.00 0.00 0.00 72 1014.0
20260906030017 83 97 1.0 5.0 0.00 0.00 0.00 72 1013.2
20260906030013 83 169 1.0 5.0 0.00 0.00 0.00 72 1013.9
20260906025508 83 105 1.0 5.0 0.00 0.00 0.00 72 1013.9
20260906025506 83 92 1.0 6.0 0.00 0.00 0.00 72 1013.3
20260906025008 83 110 2.0 6.0 0.00 0.00 0.00 72 1013.2
20260906025004 83 176 1.0 6.0 0.00 0.00 0.00 72 1013.8
20260906024525 83 284 0.0 6.0 0.00 0.00 0.00 71 1013.8
20260906024015 83 142 1.0 4.0 0.00 0.00 0.00 70 1013.8
20260906024010 83 75 2.0 7.0 0.00 0.00 0.00 70 1012.9
20260906023516 83 79 2.0 5.0 0.00 0.00 0.00 69 1012.8
20260906023511 83 129 1.0 4.0 0.00 0.00 0.00 69 1013.6
20260906023024 84 130 0.0 6.0 0.00 0.00 0.00 68 1012.7
20260906023019 84 105 0.0 3.0 0.00 0.00 0.00 68 1013.5
20260906022513 84 138 1.0 6.0 0.00 0.00 0.00 68 1012.5
20260906022014 84 127 1.0 4.0 0.00 0.00 0.00 66 1013.2
20260906022012 84 98 1.0 4.0 0.00 0.00 0.00 66 1012.4
20260906021516 84 84 1.0 7.0 0.00 0.00 0.00 65 1013.3
20260906021009 85 134 1.0 7.0 0.00 0.00 0.00 65 1013.1
20260906020515 85 168 1.0 8.0 0.00 0.00 0.00 64 1012.9
20260906020511 85 103 2.0 10.0 0.00 0.00 0.00 64 1012.0
20260906020014 85 97 1.0 8.0 0.00 0.00 0.00 64 1012.7
20260906020012 85 71 2.0 10.0 0.00 0.00 0.00 64 1011.9
20260906015511 85 94 0.0 4.0 0.00 0.00 0.00 63 1012.6
20260906015508 85 103 2.0 7.0 0.00 0.00 0.00 63 1011.8
20260906015008 86 30 2.0 9.0 0.00 0.00 0.00 63 1011.8
20260906015006 86 226 1.0 6.0 0.00 0.00 0.00 63 1012.7
20260906014524 86 62 1.0 9.0 0.00 0.00 0.00 62 1011.9
20260906014519 86 101 2.0 7.0 0.00 0.00 0.00 62 1012.7
20260906014009 86 303 1.0 8.0 0.00 0.00 0.00 61 1011.9
20260906014007 86 217 2.0 8.0 0.00 0.00 0.00 61 1012.7
20260906013511 87 60 2.0 8.0 0.00 0.00 0.00 60 1011.8
20260906013033 87 96 2.0 8.0 0.00 0.00 0.00 59 1011.7
20260906013024 87 86 1.0 8.0 0.00 0.00 0.00 59 1012.4
20260906012513 88 15 1.0 8.0 0.00 0.00 0.00 57 1011.6
20260906012511 88 115 1.0 8.0 0.00 0.00 0.00 57 1012.4
20260906012010 88 77 2.0 7.0 0.00 0.00 0.00 57 1011.6
20260906012008 88 206 1.0 9.0 0.00 0.00 0.00 57 1012.4
20260906011527 89 276 2.0 10.0 0.00 0.00 0.00 56 1011.6
20260906011020 89 138 1.0 8.0 0.00 0.00 0.00 56 1012.3
20260906011011 89 53 2.0 10.0 0.00 0.00 0.00 56 1011.5
20260906010508 89 109 2.0 8.0 0.00 0.00 0.00 56 1011.5
20260906010027 90 21 1.0 4.0 0.00 0.00 0.00 56 1012.2
20260906005513 90 100 1.0 4.0 0.00 0.00 0.00 55 1011.4
20260906005008 90 100 1.0 4.0 0.00 0.00 0.00 55 1011.4
20260906004517 91 82 2.0 5.0 0.00 0.00 0.00 54 1011.4
20260906004010 91 134 1.0 5.0 0.00 0.00 0.00 54 1012.2
20260906003510 91 80 1.0 6.0 0.00 0.00 0.00 53 1011.4
20260906003508 91 140 1.0 4.0 0.00 0.00 0.00 53 1012.2
20260906003022 91 168 1.0 6.0 0.00 0.00 0.00 53 1012.2
20260906003014 91 71 1.0 6.0 0.00 0.00 0.00 53 1011.4
20260906002510 92 101 2.0 8.0 0.00 0.00 0.00 53 1011.4
20260906002016 92 76 1.0 8.0 0.00 0.00 0.00 52 1011.4
20260906002013 92 44 2.0 8.0 0.00 0.00 0.00 52 1012.2
20260906001533 92 156 1.0 10.0 0.00 0.00 0.00 52 1012.1
20260906001526 92 98 2.0 10.0 0.00 0.00 0.00 52 1011.4
20260906001009 92 171 3.0 10.0 0.00 0.00 0.00 51 1012.2
20260906001007 92 90 2.0 10.0 0.00 0.00 0.00 51 1011.4
20260906000514 92 103 2.0 9.0 0.00 0.00 0.00 51 1011.3
20260906000512 92 312 1.0 9.0 0.00 0.00 0.00 51 1012.2
20260906000030 93 119 2.0 10.0 0.00 0.00 0.00 51 1011.3
20260905235515 93 58 2.0 10.0 0.00 0.00 0.00 51 1011.3
20260905235505 93 150 3.0 11.0 0.00 0.00 0.00 51 1012.1
20260905235013 93 113 2.0 8.0 0.00 0.00 0.00 51 1011.3
20260905234530 93 331 2.0 8.0 0.00 0.00 0.00 51 1012.0
20260905234528 93 106 2.0 9.0 0.00 0.00 0.00 51 1011.3
20260905234013 94 53 2.0 8.0 0.00 0.00 0.00 50 1012.0
20260905234008 94 88 2.0 9.0 0.00 0.00 0.00 50 1011.3
20260905233510 94 112 2.0 8.0 0.00 0.00 0.00 51 1011.9
20260905233022 94 195 1.0 8.0 0.00 0.00 0.00 49 1011.8
20260905233012 94 78 3.0 9.0 0.00 0.00 0.00 49 1011.2
20260905232513 95 254 2.0 10.0 0.00 0.00 0.00 48 1011.9
20260905232505 95 87 2.0 10.0 0.00 0.00 0.00 48 1011.1
20260905232006 95 141 2.0 10.0 0.00 0.00 0.00 48 1011.8
20260905232003 95 19 3.0 10.0 0.00 0.00 0.00 48 1011.0
20260905231526 96 82 3.0 11.0 0.00 0.00 0.00 47 1011.8
20260905231504 96 92 3.0 11.0 0.00 0.00 0.00 47 1010.9
20260905231012 96 87 1.0 11.0 0.00 0.00 0.00 47 1011.7
20260905231006 96 61 4.0 11.0 0.00 0.00 0.00 47 1011.0
20260905230517 96 88 2.0 11.0 0.00 0.00 0.00 46 1011.7
20260905230503 96 327 1.0 7.0 0.00 0.00 0.00 46 1010.9
20260905230020 96 65 2.0 10.0 0.00 0.00 0.00 45 1011.7
20260905230008 96 360 2.0 10.0 0.00 0.00 0.00 45 1010.9
20260905225511 96 167 2.0 10.0 0.00 0.00 0.00 46 1011.7
20260905225502 96 133 3.0 12.0 0.00 0.00 0.00 46 1010.9